Home > Time Zones > World Clock > Weather > Japan > Naha > Past weeks

Flag for Japan Weather past 2 weeks in Naha, Okinawa, Japan

Now
84 °F

Passing clouds.


Feels Like: 96 °F
Forecast: 82 / 89 °F
Wind: 16 mph from Southwest

Location: Naha Airport

Current Time: Jun 30, 2015 at 11:40:03 PM

Latest Report: Jun 30, 2015 at 10:30 PM


Visibility: N/A

Pressure: 29.68 "Hg

Humidity: 84%

Dew point: 79 °F

Location of NahaLocation

Historic Weather in Naha — Graph

°F

Naha temperature yesterday

Maximum temperature yesterday: 88 °F (at 9:00 AM)
Minimum temperature yesterday: 84 °F (at 12:00 AM)
Average temperature yesterday: 85 °F

Past Weeks' High & Low Weather Summary

 TemperatureHumidityPressure
High90 °F (Jun 26, 12:30 PM)94% (Jun 17, 3:00 AM)29.89 "Hg (Jun 17, 3:00 AM)
Low79 °F (Jun 20, 7:00 PM)66% (Jun 21, 12:30 PM)29.62 "Hg (Jun 30, 4:00 PM)
Average85 °F83%29.76 "Hg
* Reported Jun 15 10:00 PM — Jun 30 10:00 PM, Naha, Weather by CustomWeather, © 2015

Note: Actual official high and low records may vary slightly from our data, if they occured in-between our weather recording intervals... More about our weather records

Advertising

Naha weather history for previous 24 hours

 ConditionsComfort  
Time TempWeatherWind HumidityBarometerVisibility
10:00 PM
Tue, Jun 30
84 °FPassing clouds.18 mph84%29.68 "HgN/A
9:30 PM84 °FPassing clouds.16 mph84%29.68 "HgN/A
9:00 PM84 °FPassing clouds.18 mph84%29.68 "HgN/A
8:30 PM84 °FPassing clouds.17 mph89%29.65 "HgN/A
8:00 PM84 °FPassing clouds.17 mph89%29.65 "HgN/A
7:30 PM84 °FPassing clouds.17 mph89%29.65 "HgN/A
7:00 PM84 °FRain showers. Broken clouds.15 mph84%29.65 "HgN/A
6:47 PM84 °FRain showers. Broken clouds.14 mph84%29.65 "HgN/A
6:30 PM84 °FSprinkles. Broken clouds.17 mph84%29.65 "HgN/A
6:00 PM84 °FRain showers. Broken clouds.18 mph84%29.65 "HgN/A
5:30 PM86 °FScattered showers. Broken clouds.20 mph79%29.65 "HgN/A
5:00 PM88 °FPartly sunny.18 mph75%29.62 "HgN/A
4:30 PM88 °FPartly sunny.20 mph75%29.62 "HgN/A
4:00 PM88 °FPartly sunny.21 mph75%29.62 "HgN/A
3:30 PM88 °FPartly sunny.20 mph75%29.65 "HgN/A
3:00 PM88 °FPartly sunny.20 mph75%29.65 "HgN/A
2:30 PM90 °FPartly sunny.20 mph75%29.65 "HgN/A
2:00 PM88 °FBroken clouds.16 mph75%29.68 "HgN/A
1:30 PM88 °FPartly sunny.18 mph75%29.68 "HgN/A
1:00 PM88 °FPartly sunny.18 mph79%29.68 "HgN/A
12:30 PM88 °FPartly sunny.17 mph75%29.68 "HgN/A
12:00 PM90 °FPartly sunny.18 mph75%29.71 "HgN/A
11:30 AM90 °FPartly sunny.18 mph75%29.71 "HgN/A
11:00 AM88 °FPartly sunny.18 mph79%29.71 "HgN/A
10:30 AM88 °FScattered clouds.21 mph75%29.71 "HgN/A
10:00 AM88 °FScattered clouds.20 mph75%29.71 "HgN/A
9:30 AM88 °FScattered clouds.21 mph75%29.71 "HgN/A
9:00 AM88 °FScattered clouds.20 mph79%29.68 "HgN/A
8:30 AM86 °FPassing clouds.20 mph79%29.68 "HgN/A
8:00 AM86 °FScattered clouds.18 mph84%29.68 "HgN/A
7:30 AM84 °FScattered showers. Scattered clouds.20 mph89%29.68 "HgN/A
6:30 AM84 °FScattered showers. Scattered clouds.20 mph84%29.68 "HgN/A
6:00 AM84 °FPartly sunny.18 mph89%29.68 "HgN/A
5:30 AM84 °FScattered showers. Passing clouds.18 mph89%29.68 "HgN/A
5:00 AM82 °FRain showers. Passing clouds.20 mph89%29.71 "Hg4 mi
4:48 AM84 °FLots of rain. Partly cloudy.17 mph84%29.71 "HgN/A
4:30 AM84 °FScattered showers. Passing clouds.16 mph89%29.71 "HgN/A
4:00 AM84 °FPartly cloudy.14 mph89%29.71 "HgN/A
3:30 AM84 °FPassing clouds.16 mph84%29.71 "HgN/A
3:00 AM84 °FScattered showers. Passing clouds.16 mph84%29.71 "HgN/A
2:30 AM84 °FRain showers. Passing clouds.15 mph89%29.71 "HgN/A
2:00 AM84 °FPassing clouds.16 mph89%29.71 "HgN/A
1:30 AM84 °FPassing clouds.17 mph89%29.71 "HgN/A
1:00 AM84 °FPassing clouds.16 mph89%29.74 "HgN/A
12:30 AM84 °FPassing clouds.17 mph89%29.74 "HgN/A
12:00 AM84 °FPassing clouds.15 mph89%29.74 "HgN/A
11:30 PM
Mon, Jun 29
84 °FPassing clouds.15 mph89%29.77 "HgN/A
11:00 PM84 °FPartly cloudy.14 mph84%29.77 "HgN/A
Weather by CustomWeather, © 2015

See weather overviewHow to use our weather pages